Brainerd, MN

12:25 AM CDT on August 24, 2017 (GMT -0500)
Brainerd-Crow Wing County Regional

Weather History for KBRD - September, 2011

Change the Weather History Date:

Tuesday, September 27, 2011

  Actual Average Record
Temperature  
Mean Temperature 62 °F -  
Max Temperature 78 °F 64 °F 83 °F (1956)
Min Temperature 46 °F 37 °F 24 °F (1985)
Degree Days  
Heating Degree Days 4    
Growing Degree Days 12 (Base 50)    
Moisture  
Dew Point 47 °F    
Average Humidity 74    
Maximum Humidity 93    
Minimum Humidity 34    
Precipitation  
Precipitation 0.00 in - - ()
Sea Level Pressure  
Sea Level Pressure 29.93 in    
Wind  
Wind Speed 1 mph (North)    
Max Wind Speed 8 mph    
Max Gust Speed -    
Visibility 7 miles    
Events      
Averages and records for this station are not official NWS values.
T = Trace of Precipitation, MM = Missing Value Source: NWS Daily Summary

Daily Weather History Graph

Daily Weather History Graph

Search for Another Location

Airport or City:

Trip Planner

Search our weather history database for the weather conditions in past years. The results will help you decide how hot, cold, wet, or windy it might be!

Date:

Astronomy

Sep. 27, 2011 Rise Set
Actual Time 7:09 AM CDT 7:04 PM CDT
Civil Twilight 6:39 AM CDT 7:34 PM CDT
Nautical Twilight 6:04 AM CDT 8:09 PM CDT
Astronomical Twilight 5:28 AM CDT 8:45 PM CDT
Moon 7:29 AM CDT (9/27) 6:49 PM CDT (9/27)
Length of Visible Light 12h 55m
Length of Day
11h 55m
New Moon, 0% of the Moon is Illuminated
Sep 27
New Moon
Oct 3
First Quarter
Oct 11
Full
Oct 19
Last Quarter
Oct 26
New

Hourly Weather History & Observations

Time (CDT) Temp. Dew Point Humidity Pressure Visibility Wind Dir Wind Speed Gust Speed Precip Events Conditions
12:53 AM 50.0 °F 45.0 °F 83% 29.96 in 7.0 mi Calm Calm - N/A   Clear
1:37 AM 46.4 °F 44.6 °F 93% 29.94 in 1.8 mi Calm Calm - N/A   Clear
1:47 AM 48.2 °F 44.6 °F 87% 29.94 in 3.0 mi Calm Calm - N/A   Haze
1:53 AM 48.0 °F 43.0 °F 83% 29.95 in 10.0 mi Calm Calm - N/A   Clear
2:53 AM 48.0 °F 44.1 °F 86% 29.94 in 7.0 mi Calm Calm - N/A   Clear
3:53 AM 50.0 °F 45.0 °F 83% 29.94 in 8.0 mi Calm Calm - N/A   Clear
4:53 AM 46.0 °F 43.0 °F 89% 29.96 in 5.0 mi Calm Calm - N/A   Clear
5:22 AM 48.2 °F 42.8 °F 82% 29.95 in 1.8 mi Calm Calm - N/A   Haze
5:29 AM 48.2 °F 44.6 °F 87% 29.95 in 1.0 mi NNW 3.5 mph - N/A   Clear
5:32 AM 48.2 °F 44.6 °F 87% 29.95 in 2.0 mi Calm Calm - N/A   Clear
5:39 AM 48.2 °F 42.8 °F 82% 29.95 in 8.0 mi Calm Calm - N/A   Clear
5:53 AM 46.9 °F 43.0 °F 86% 29.95 in 5.0 mi Calm Calm - N/A   Clear
6:53 AM 48.9 °F 45.0 °F 86% 29.96 in 8.0 mi Calm Calm - N/A   Clear
7:53 AM 50.0 °F 45.0 °F 83% 29.99 in 8.0 mi Calm Calm - N/A   Clear
8:53 AM 55.0 °F 48.0 °F 77% 29.99 in 10.0 mi Calm Calm - N/A   Clear
9:53 AM 61.0 °F 50.0 °F 67% 29.99 in 10.0 mi Calm Calm - N/A   Clear
10:53 AM 66.9 °F 50.0 °F 54% 29.98 in 10.0 mi NNW 8.1 mph - N/A   Clear
11:53 AM 71.1 °F 50.0 °F 47% 29.97 in 10.0 mi NNW 5.8 mph - N/A   Clear
1:53 PM 75.0 °F 46.9 °F 37% 29.93 in 10.0 mi North - - N/A   Clear
2:53 PM 75.0 °F 48.0 °F 38% 29.91 in 10.0 mi NNW 5.8 mph - N/A   Clear
3:53 PM 77.0 °F 46.9 °F 34% 29.90 in 10.0 mi Calm Calm - N/A   Clear
4:53 PM 77.0 °F 48.0 °F 36% 29.90 in 10.0 mi NE 5.8 mph - N/A   Clear
5:53 PM 75.9 °F 48.0 °F 37% 29.89 in 10.0 mi NE 3.5 mph - N/A   Clear
6:53 PM 68.0 °F 53.1 °F 59% 29.90 in 10.0 mi Calm Calm - N/A   Clear
7:53 PM 60.1 °F 53.1 °F 78% 29.91 in 10.0 mi Calm Calm - N/A   Clear
8:53 PM 55.9 °F 51.1 °F 84% 29.91 in 10.0 mi Calm Calm - N/A   Clear
9:53 PM 54.0 °F 50.0 °F 86% 29.90 in 9.0 mi Calm Calm - N/A   Clear
10:53 PM 51.1 °F 46.9 °F 86% 29.89 in 3.0 mi Calm Calm - N/A   Clear
10:59 PM 51.8 °F 46.4 °F 82% 29.88 in 1.8 mi Calm Calm - N/A   Clear
11:07 PM 50.0 °F 46.4 °F 87% 29.88 in 1.0 mi Calm Calm - N/A   Clear
11:12 PM 50.0 °F 46.4 °F 87% 29.88 in 2.5 mi Calm Calm - N/A   Clear
11:19 PM 51.8 °F 46.4 °F 82% 29.88 in 6.0 mi Calm Calm - N/A   Haze
11:53 PM 50.0 °F 46.9 °F 89% 29.88 in 5.0 mi Calm Calm - N/A   Clear